| time (UTC) | temp F | wind direction | speed MPH | gust MPH | rain 1hr in | rain 24hr in | rain mn in | humidity % | barometer mb |
| 20260504214717 | 48 | 0 | 1.0 | 2.0 | 0.00 | 0.00 | 0.00 | 88 | 1007.3 |
| 20260504213717 | 48 | 315 | 1.0 | 1.0 | 0.00 | 0.00 | 0.00 | 88 | 1006.9 |
| 20260504212717 | 49 | 0 | 1.0 | 1.0 | 0.00 | 0.00 | 0.00 | 87 | 1006.8 |
| 20260504211717 | 49 | 0.0 | 1.0 | 0.00 | 0.00 | 0.00 | 87 | 1006.7 | |
| 20260504210717 | 49 | 0.0 | 1.0 | 0.00 | 0.00 | 0.00 | 88 | 1006.5 | |
| 20260504205717 | 49 | 338 | 1.0 | 1.0 | 0.00 | 0.00 | 0.00 | 88 | 1006.4 |
| 20260504204717 | 48 | 0 | 1.0 | 1.0 | 0.00 | 0.00 | 0.00 | 88 | 1006.3 |
| 20260504203717 | 48 | 0.0 | 0.0 | 0.00 | 0.00 | 0.00 | 92 | 1006.2 | |
| 20260504202717 | 48 | 0.0 | 0.0 | 0.00 | 0.00 | 0.00 | 88 | 1005.9 | |
| 20260504201717 | 48 | 0.0 | 0.0 | 0.00 | 0.00 | 0.00 | 87 | 1005.7 | |
| 20260504200716 | 48 | 0.0 | 0.0 | 0.00 | 0.00 | 0.00 | 87 | 1005.6 | |
| 20260504195716 | 48 | 315 | 1.0 | 2.0 | 0.00 | 0.00 | 0.00 | 87 | 1005.6 |
| 20260504194737 | 49 | 0 | 1.0 | 2.0 | 0.00 | 0.00 | 0.00 | 87 | 1005.5 |
| 20260504193737 | 49 | 0 | 1.0 | 2.0 | 0.00 | 0.00 | 0.00 | 86 | 1005.4 |
| 20260504192716 | 49 | 0.0 | 1.0 | 0.00 | 0.00 | 0.00 | 86 | 1005.3 | |
| 20260504191717 | 49 | 0 | 1.0 | 2.0 | 0.00 | 0.00 | 0.00 | 86 | 1005.4 |
| 20260504190717 | 49 | 0.0 | 0.0 | 0.00 | 0.00 | 0.00 | 85 | 1005.3 | |
| 20260504185716 | 50 | 0.0 | 1.0 | 0.00 | 0.00 | 0.00 | 85 | 1005.1 | |
| 20260504184717 | 49 | 338 | 1.0 | 2.0 | 0.00 | 0.00 | 0.00 | 86 | 1005.1 |
| 20260504183717 | 50 | 23 | 1.0 | 2.0 | 0.00 | 0.00 | 0.00 | 85 | 1005.2 |
| 20260504182737 | 50 | 23 | 1.0 | 2.0 | 0.00 | 0.00 | 0.00 | 84 | 1005.2 |
| 20260504181717 | 51 | 0.0 | 0.0 | 0.00 | 0.00 | 0.00 | 83 | 1004.9 | |
| 20260504180717 | 51 | 0.0 | 0.0 | 0.00 | 0.00 | 0.00 | 84 | 1004.8 | |
| 20260504175737 | 51 | 0 | 1.0 | 2.0 | 0.00 | 0.00 | 0.00 | 84 | 1004.8 |
| 20260504174716 | 51 | 0 | 1.0 | 2.0 | 0.00 | 0.00 | 0.00 | 84 | 1004.5 |
| 20260504173716 | 51 | 0.0 | 0.0 | 0.00 | 0.00 | 0.00 | 83 | 1004.5 | |
| 20260504172716 | 51 | 0.0 | 1.0 | 0.00 | 0.00 | 0.00 | 82 | 1004.5 | |
| 20260504171716 | 52 | 23 | 1.0 | 2.0 | 0.00 | 0.00 | 0.00 | 82 | 1004.4 |
| 20260504170737 | 52 | 0.0 | 0.0 | 0.00 | 0.00 | 0.00 | 83 | 1004.4 | |
| 20260504150716 | 54 | 0 | 2.0 | 2.0 | 0.00 | 0.00 | 0.00 | 78 | 1004.9 |
| 20260504140717 | 55 | 45 | 2.0 | 2.0 | 0.00 | 0.00 | 0.00 | 77 | 1004.7 |
| 20260504130718 | 56 | 0.0 | 0.0 | 0.00 | 0.00 | 0.00 | 73 | 1005.2 | |
| 20260504110718 | 55 | 338 | 2.0 | 2.0 | 0.00 | 0.00 | 0.00 | 76 | 1005.2 |
| 20260504081718 | 57 | 45 | 1.0 | 2.0 | 0.00 | 0.01 | 0.00 | 73 | 1004.7 |
| 20260504080718 | 56 | 0.0 | 1.0 | 0.00 | 0.01 | 0.00 | 74 | 1004.5 | |
| 20260504050717 | 63 | 0 | 2.0 | 3.0 | 0.00 | 0.02 | 0.00 | 61 | 1004.3 |
| 20260504045717 | 63 | 293 | 2.0 | 4.0 | 0.00 | 0.02 | 0.00 | 60 | 1004.1 |
| 20260504044717 | 64 | 338 | 4.0 | 5.0 | 0.00 | 0.02 | 0.00 | 57 | 1004.2 |
| 20260504043717 | 65 | 338 | 4.0 | 7.0 | 0.00 | 0.02 | 0.00 | 55 | 1004.1 |
| 20260504042717 | 65 | 315 | 3.0 | 7.0 | 0.00 | 0.02 | 0.00 | 54 | 1004.3 |
| 20260504041738 | 66 | 0 | 4.0 | 6.0 | 0.00 | 0.02 | 0.00 | 54 | 1004.4 |
| 20260504040718 | 66 | 23 | 2.0 | 3.0 | 0.00 | 0.02 | 0.00 | 54 | 1004.2 |
| 20260504035717 | 67 | 293 | 4.0 | 6.0 | 0.00 | 0.02 | 0.00 | 54 | 1004.4 |
| 20260504034717 | 67 | 0 | 3.0 | 6.0 | 0.00 | 0.02 | 0.00 | 51 | 1004.4 |
| 20260504033717 | 68 | 0 | 3.0 | 7.0 | 0.00 | 0.02 | 0.00 | 52 | 1004.6 |
| 20260504032717 | 68 | 270 | 3.0 | 7.0 | 0.00 | 0.02 | 0.00 | 51 | 1004.6 |
| 20260504031717 | 68 | 0 | 4.0 | 9.0 | 0.00 | 0.02 | 0.00 | 50 | 1004.8 |
| 20260504030738 | 68 | 338 | 2.0 | 4.0 | 0.00 | 0.02 | 0.00 | 51 | 1004.7 |
| 20260504025718 | 68 | 315 | 3.0 | 6.0 | 0.00 | 0.02 | 0.00 | 50 | 1004.8 |
| 20260504024718 | 69 | 23 | 1.0 | 3.0 | 0.00 | 0.02 | 0.00 | 50 | 1005.2 |
| 20260504023718 | 69 | 45 | 3.0 | 3.0 | 0.00 | 0.02 | 0.00 | 52 | 1005.4 |
| 20260504022717 | 68 | 0 | 2.0 | 3.0 | 0.00 | 0.02 | 0.00 | 53 | 1005.5 |
| 20260504021737 | 68 | 293 | 3.0 | 4.0 | 0.00 | 0.02 | 0.00 | 51 | 1005.8 |
| 20260504020718 | 67 | 45 | 1.0 | 3.0 | 0.00 | 0.02 | 0.00 | 53 | 1006.0 |
| 20260504015717 | 67 | 45 | 2.0 | 5.0 | 0.00 | 0.02 | 0.00 | 53 | 1006.3 |
| 20260504014717 | 66 | 293 | 2.0 | 4.0 | 0.00 | 0.02 | 0.00 | 56 | 1006.5 |
| 20260504013737 | 65 | 293 | 3.0 | 7.0 | 0.00 | 0.02 | 0.00 | 57 | 1006.6 |
| 20260504012717 | 65 | 293 | 1.0 | 3.0 | 0.00 | 0.02 | 0.00 | 57 | 1006.5 |
| 20260504011718 | 65 | 338 | 1.0 | 2.0 | 0.00 | 0.02 | 0.00 | 59 | 1006.6 |
| 20260504010717 | 64 | 45 | 2.0 | 3.0 | 0.00 | 0.02 | 0.00 | 60 | 1006.5 |
| 20260504005717 | 64 | 293 | 3.0 | 7.0 | 0.00 | 0.02 | 0.00 | 61 | 1006.5 |
| 20260504004717 | 64 | 0 | 1.0 | 3.0 | 0.00 | 0.02 | 0.00 | 61 | 1006.5 |
| 20260504003717 | 64 | 270 | 3.0 | 6.0 | 0.00 | 0.02 | 0.00 | 61 | 1006.6 |
| 20260504002737 | 63 | 338 | 2.0 | 3.0 | 0.00 | 0.02 | 0.00 | 65 | 1006.5 |
| 20260504001738 | 63 | 338 | 3.0 | 4.0 | 0.00 | 0.02 | 0.00 | 64 | 1006.6 |
| 20260504000757 | 62 | 0 | 1.0 | 3.0 | 0.00 | 0.02 | 0.00 | 67 | 1006.7 |
| 20260503235717 | 61 | 338 | 2.0 | 3.0 | 0.00 | 0.02 | 0.00 | 74 | 1006.8 |
| 20260503234717 | 58 | 0.0 | 1.0 | 0.00 | 0.02 | 0.00 | 84 | 1006.8 | |
| 20260503233717 | 57 | 0.0 | 0.0 | 0.00 | 0.02 | 0.00 | 87 | 1006.9 | |
| 20260503232718 | 57 | 0.0 | 0.0 | 0.00 | 0.02 | 0.00 | 87 | 1007.1 | |
| 20260503231717 | 57 | 0.0 | 0.0 | 0.00 | 0.02 | 0.00 | 87 | 1007.2 | |
| 20260503230717 | 57 | 0.0 | 0.0 | 0.00 | 0.02 | 0.00 | 87 | 1007.1 | |
| 20260503225737 | 56 | 0.0 | 0.0 | 0.00 | 0.02 | 0.00 | 89 | 1007.1 | |
| 20260503224717 | 55 | 0.0 | 0.0 | 0.00 | 0.02 | 0.00 | 91 | 1007.1 | |
| 20260503223737 | 53 | 0 | 1.0 | 2.0 | 0.00 | 0.02 | 0.00 | 92 | 1007.3 |
| 20260503222718 | 51 | 23 | 1.0 | 3.0 | 0.00 | 0.02 | 0.00 | 92 | 1007.2 |
| 20260503221717 | 51 | 0 | 2.0 | 3.0 | 0.00 | 0.02 | 0.00 | 92 | 1007.2 |
| 20260503220718 | 51 | 0.0 | 1.0 | 0.00 | 0.02 | 0.00 | 92 | 1007.2 | |
| 20260503215717 | 51 | 0 | 1.0 | 2.0 | 0.00 | 0.02 | 0.00 | 92 | 1007.0 |